Location: ?
(35.4996°N, 139.3166°E)
Time: 09:28:18
(UTC+00:00)

Meteor 1-18 Rocket - Visible Passes

Search period start: 17 July 2024 00:00
Search period end: 27 July 2024 00:00
Orbit: 835 x 909 km, 81.2° (Epoch: 16 July)

Date Brightness Start Highest point End Pass type
(mag) Time Alt. Az. Time Alt. Az. Time Alt. Az.
17 Jul 5.1 16:44:51 10° N 16:50:13 45° ENE 16:53:01 26° SE visible
17 Jul 5.6 18:29:16 10° NW 18:33:11 20° W 18:35:26 16° WSW visible
18 Jul 5.0 16:39:14 10° N 16:44:39 47° ENE 16:46:48 32° SE visible
18 Jul 5.6 18:23:47 10° NW 18:27:35 19° W 18:29:14 17° WSW visible
19 Jul 4.9 16:33:36 10° N 16:39:03 49° ENE 16:40:40 39° ESE visible
19 Jul 5.7 18:18:18 10° NW 18:21:58 18° W 18:23:05 17° WSW visible
20 Jul 4.8 16:27:58 10° N 16:33:29 52° E 16:34:35 45° ESE visible
20 Jul 5.7 18:12:50 10° NW 18:16:21 17° W 18:17:00 17° W visible
21 Jul 4.7 16:22:21 10° N 16:27:54 54° E 16:28:32 52° ESE visible
21 Jul 5.8 18:07:22 10° NW 18:10:44 16° W 18:10:58 16° W visible
22 Jul 4.6 16:16:44 10° N 16:22:19 57° E 16:22:32 57° E visible
22 Jul 5.9 18:01:55 10° NW 18:04:58 16° W 18:04:58 16° W visible
23 Jul 4.6 16:11:07 10° N 16:16:34 60° ENE 16:16:34 60° ENE visible
23 Jul 6.0 17:56:29 10° NW 17:59:00 15° W 17:59:00 15° W visible
24 Jul 4.6 16:05:31 10° N 16:10:38 60° NE 16:10:38 60° NE visible
24 Jul 6.1 17:51:04 10° NW 17:53:04 14° WNW 17:53:04 14° WNW visible
25 Jul 4.7 15:59:54 10° N 16:04:44 58° NE 16:04:44 58° NE visible
25 Jul 6.2 17:45:40 10° WNW 17:47:11 13° WNW 17:47:11 13° WNW visible
26 Jul 4.8 15:54:18 10° N 15:58:53 56° NNE 15:58:53 56° NNE visible
26 Jul 6.3 17:40:17 10° WNW 17:41:19 12° WNW 17:41:19 12° WNW visible
